This demonstration page uses our WeatherBlox Daily Observations layout. Learn more.

Left ArrowRight Arrow

Hourly Observations for July 18, 2015

Temp ( °F °C ) Dew Point ( °F °C ) Humidity (%) Winds ( mph kmh ) Pressure ( in mb ) Visibility ( mi km ) Precip ( " mm )
12:15 am 00:15 Cloudy 79 26 73 23 84 84 S 9 15 30 1016 10 16.0934 0 0
12:35 am 00:35 Cloudy 79 26 73 23 84 84 S 9 15 30 1016 10 16.0934 0 0
12:55 am 00:55 Mostly Cloudy 77 25 73 23 89 89 SSW 10 17 30 1016 10 16.0934 0 0
1:15 am 01:15 Partly Cloudy 77 25 73 23 89 89 SSW 12 19 30 1016 10 16.0934 0 0
1:35 am 01:35 Clear 77 25 73 23 89 89 S 13 20 30 1016 10 16.0934 0 0
1:55 am 01:55 Clear 77 25 73 23 89 89 S 12 19 30 1016 10 16.0934 0 0
2:15 am 02:15 Clear 75 24 73 23 94 94 S 10 17 29.97 1015 10 16.0934 0 0
2:35 am 02:35 Clear 73 23 73 23 100 100 SSW 6 9 29.97 1015 10 16.0934 0 0
2:55 am 02:55 Clear 73 23 73 23 100 100 SSW 7 11 29.97 1015 10 16.0934 0 0
3:15 am 03:15 Clear 73 23 73 23 100 100 S 7 11 29.97 1015 10 16.0934 0 0
3:35 am 03:35 Partly Cloudy 73 23 73 23 100 100 SSW 7 11 29.97 1015 10 16.0934 0 0
3:55 am 03:55 Partly Cloudy 73 23 73 23 100 100 S 8 13 29.97 1015 10 16.0934 0 0
4:15 am 04:15 Mostly Cloudy 73 23 73 23 100 100 S 8 13 29.97 1015 10 16.0934 0 0
4:35 am 04:35 Cloudy 73 23 73 23 100 100 S 9 15 29.97 1015 10 16.0934 0 0
4:55 am 04:55 Cloudy 73 23 73 23 100 100 S 9 15 29.97 1015 10 16.0934 0 0
5:15 am 05:15 Mostly Cloudy 73 23 73 23 100 100 S 8 13 29.97 1015 10 16.0934 0 0
5:35 am 05:35 Partly Cloudy 73 23 73 23 100 100 S 8 13 29.97 1015 10 16.0934 0 0
5:55 am 05:55 Partly Cloudy 72 22 72 22 100 100 S 8 13 29.97 1015 10 16.0934 0 0
6:15 am 06:15 Partly Cloudy 72 22 72 22 100 100 S 7 11 30 1016 10 16.0934 0 0
6:35 am 06:35 Partly Cloudy 72 22 72 22 100 100 S 5 7 30 1016 10 16.0934 0 0
6:55 am 06:55 Partly Cloudy 73 23 73 23 100 100 S 5 7 29.97 1015 10 16.0934 0 0
7:15 am 07:15 Mostly Cloudy 73 23 73 23 100 100 S 5 7 30 1016 10 16.0934 0 0
7:35 am 07:35 Cloudy 73 23 73 23 100 100 S 7 11 29.97 1015 10 16.0934 0 0
7:55 am 07:55 Cloudy 75 24 73 23 94 94 SSW 9 15 30 1016 10 16.0934 0 0
8:15 am 08:15 Cloudy 77 25 73 23 89 89 SW 6 9 30 1016 10 16.0934 0 0
8:35 am 08:35 Cloudy with Thunderstorms 75 24 73 23 94 94 W 6 9 30.03 1017 10 16.0934 0 0
8:55 am 08:55 Cloudy with Thunderstorms 73 23 73 23 100 100 Calm 30 1016 4 6.43736 0 0
9:15 am 09:15 Cloudy with Nearby Thunderstorms 73 23 73 23 100 100 WSW 6 9 30.03 1017 4 6.43736 0 0
9:35 am 09:35 Cloudy with Rain 73 23 73 23 100 100 E 5 7 30 1016 3 4.82802 0 0
9:55 am 09:55 Cloudy with Light Rain 73 23 73 23 100 100 S 5 7 30.03 1017 5 8.0467 0 0
10:15 am 10:15 Cloudy with Light Rain 75 24 75 24 100 100 Calm 30.03 1017 5 8.0467 0 0
10:35 am 10:35 Cloudy with Light Rain 75 24 75 24 100 100 SSW 5 7 30 1016 7 11.26538 0 0
10:55 am 10:55 Cloudy 77 25 77 25 100 100 SW 5 7 30 1016 10 16.0934 0 0
11:15 am 11:15 Mostly Cloudy 77 25 77 25 100 100 WSW 3 6 30.03 1017 10 16.0934 0 0
11:35 am 11:35 Cloudy 79 26 77 25 94 94 Calm 30 1016 10 16.0934 0 0
11:55 am 11:55 Partly Cloudy 79 26 77 25 94 94 WSW 5 7 30 1016 10 16.0934 0 0
12:15 pm 12:15 Sunny with Nearby Thunderstorms 81 27 77 25 89 89 W 6 9 30 1016 10 16.0934 0 0
12:35 pm 12:35 Sunny 82 28 77 25 84 84 SW 9 15 30 1016 10 16.0934 0 0
12:55 pm 12:55 Sunny 82 28 77 25 84 84 SW 8 13 29.97 1015 10 16.0934 0 0
1:15 pm 13:15 Sunny 81 27 75 24 84 84 WSW 5 7 29.97 1015 10 16.0934 0 0
1:35 pm 13:35 Sunny 82 28 75 24 79 79 WSW 5 7 29.97 1015 10 16.0934 0 0
1:55 pm 13:55 Sunny 84 29 77 25 79 79 SW 8 13 29.97 1015 10 16.0934 0 0
2:15 pm 14:15 Sunny 86 30 77 25 75 75 WSW 10 17 29.94 1014 10 16.0934 0 0
2:35 pm 14:35 Sunny 86 30 77 25 75 75 WSW 8 13 29.94 1014 10 16.0934 0 0
2:55 pm 14:55 Sunny 88 31 75 24 66 66 WSW 12 19 29.91 1013 10 16.0934 0 0
3:15 pm 15:15 Sunny 88 31 77 25 70 70 SW 12 19 29.91 1013 10 16.0934 0 0
3:35 pm 15:35 Sunny 88 31 77 25 70 70 WSW 7 11 29.91 1013 10 16.0934 0 0
3:55 pm 15:55 Sunny 88 31 77 25 70 70 SSW 9 15 29.91 1013 10 16.0934 0 0
4:15 pm 16:15 Sunny 88 31 77 25 70 70 SW 10 17 29.91 1013 10 16.0934 0 0
4:35 pm 16:35 Sunny 90 32 77 25 67 67 SSW 10 17 29.91 1013 10 16.0934 0 0
4:55 pm 16:55 Sunny 90 32 77 25 67 67 SW 12 19 29.91 1013 10 16.0934 0 0
5:15 pm 17:15 Sunny 90 32 77 25 67 67 WSW 5 7 29.91 1013 10 16.0934 0 0
5:35 pm 17:35 Sunny 90 32 77 25 67 67 SSW 5 7 29.91 1013 10 16.0934 0 0
5:55 pm 17:55 Sunny 90 32 77 25 67 67 WSW 3 6 29.91 1013 10 16.0934 0 0
6:15 pm 18:15 Sunny 90 32 77 25 67 67 SSW 3 6 29.91 1013 10 16.0934 0 0
6:35 pm 18:35 Sunny 90 32 77 25 67 67 SSW 7 11 29.91 1013 10 16.0934 0 0
6:55 pm 18:55 Sunny 88 31 77 25 70 70 SSW 6 9 29.91 1013 10 16.0934 0 0
7:15 pm 19:15 Sunny 88 31 77 25 70 70 S 6 9 29.88 1012 10 16.0934 0 0
7:35 pm 19:35 Sunny 86 30 77 25 75 75 S 7 11 29.88 1012 10 16.0934 0 0
7:55 pm 19:55 Sunny 86 30 77 25 75 75 S 3 6 29.88 1012 10 16.0934 0 0
8:15 pm 20:15 Sunny 84 29 77 25 79 79 S 3 6 29.91 1013 10 16.0934 0 0
8:35 pm 20:35 Clear 82 28 77 25 84 84 S 5 7 29.91 1013 10 16.0934 0 0
8:55 pm 20:55 Clear 82 28 77 25 84 84 S 5 7 29.94 1014 10 16.0934 0 0
9:15 pm 21:15 Clear 81 27 77 25 89 89 S 5 7 29.94 1014 10 16.0934 0 0
9:35 pm 21:35 Clear 81 27 77 25 89 89 S 6 9 29.94 1014 10 16.0934 0 0
9:55 pm 21:55 Clear 81 27 77 25 89 89 S 10 17 29.94 1014 10 16.0934 0 0
10:15 pm 22:15 Clear 81 27 77 25 89 89 S 8 13 29.94 1014 10 16.0934 0 0
10:35 pm 22:35 Clear 81 27 75 24 84 84 SSW 13 20 29.97 1015 10 16.0934 0 0
10:55 pm 22:55 Clear 79 26 75 24 89 89 SSW 13 20 29.94 1014 10 16.0934 0 0
11:15 pm 23:15 Clear 79 26 75 24 89 89 SSW 14 22 29.94 1014 10 16.0934 0 0
11:35 pm 23:35 Clear 79 26 75 24 89 89 WSW 5 7 29.94 1014 10 16.0934 0 0
11:55 pm 23:55 Clear 79 26 77 25 94 94 SW 6 9 29.94 1014 10 16.0934 0 0

Powered by AerisWeather